Hourly Data Report for July 16, 2021

ALGONQUIN PARK EAST GATE
ONTARIO
Current Station Operator: ECCC - MSC

45°32'00.000" N
78°16'00.000" W
397.00 m
6080192
71581
TNK

Download Data

Hourly Data (July 2021)
Hourly Data Report for July 16, 2021
TIME
LST
Temp Definition
°C
Dew Point Definition
°C
Rel Hum Definition
%
Precip. Amount Definition
mm

Wind Dir Definition
10's deg

Wind Spd Definition
km/h
Visibility Definition
km
Stn Press Definition
kPa
Hmdx Definition


Wind Chill Definition


Weather Definition


00:00 16.6 15.3 93 0.0 36 4   96.57     LegendNANA
01:00 15.9 14.5 91 0.0 35 3   96.66     LegendNANA
02:00 15.6 14.3 92 0.0 34 3   96.69     LegendNANA
03:00 15.5 13.5 88 0.0 33 4   96.73     LegendNANA
04:00 13.6 12.8 95 0.0   0   96.81     LegendNANA
05:00 12.5 12.0 97 0.0 12 1   96.89     LegendNANA
06:00 12.8 12.5 98 0.0   0   96.96     LegendNANA
07:00 15.3 12.8 85 0.0 1 4   97.02     LegendNANA
08:00 16.8 11.9 73 0.0 1 4   97.10     LegendNANA
09:00 18.3 10.4 60 0.0 1 6   97.15     LegendNANA
10:00 20.5 11.9 58 0.0 34 3   97.17     LegendNANA
11:00 21.6 9.8 47 0.0 1 6   97.20     LegendNANA
12:00 22.8 12.1 51 0.0 11 4   97.22 25   LegendNANA
13:00 22.9 11.3 48 0.0 6 7   97.20 25   LegendNANA
14:00 23.0 11.4 48 0.0 35 4   97.19 25   LegendNANA
15:00 23.5 11.3 46 0.0 34 3   97.15 25   LegendNANA
16:00 23.5 11.9 48 0.0 31 3   97.12 26   LegendNANA
17:00 23.1 12.7 52 0.0 0 1   97.12 26   LegendNANA
18:00 21.9 17.0 74 0.0   0   97.10 27   LegendNANA
19:00 20.1 17.2 83 0.0   0   97.13 26   LegendNANA
20:00 18.4 16.4 88 0.0   0   97.15     LegendNANA
21:00 17.0 15.8 92 0.0   0   97.21     LegendNANA
22:00 16.0 15.3 95 0.0   0   97.26     LegendNANA
23:00 14.7 14.0 95 0.0   0   97.26     LegendNANA

Notes on Data Quality.

Legend

  • E = Estimated
  • M = Missing
  • NA = Not Available*
  • [empty] = Indicates an unobserved value
Date modified: